Temp
18 18 18 18 19 19 20 19 19 20 20 19 19 18 18 18 18 19 20 20 20 19 19 20 20 20 20 20 21 21 21 21 21 21 21 21 21 21 21 21 21 21 22 21 21 21 21 21 21 20 19 18 17 17 16 15 15 14 14 13 12 12 11 10 10 9 9 9 8 8 9 9 9 10 10 10 11 11 11 11 10 10 10 10 9 9
17 17 17 19 20 20 20 19 18 18 18 18 18 18 17 17 18 19 20 20 20 18 19 20 20 19 20 20 20 21 20 21 21 22 22 22 22 22 22 21 22 22 21 21 21 20 20 20 20 19 19 18 17 16 16 15 15 15 14 13 12 11 10 10 10 10 9 9 10 9 9 10 10 10 10 10 10 10 10 10 10 10 10 9 9 9
16 16 16 18 19 19 19 18 18 18 17 17 17 17 17 17 18 18 19 19 19 18 19 19 19 19 20 20 20 20 20 21 21 22 22 22 22 22 22 22 22 22 22 21 21 21 19 19 19 18 17 17 17 17 16 15 15 14 13 13 12 11 10 10 10 10 10 10 10 10 10 10 10 10 10 10 10 9 9 9 9 9 9 9 9 9
17 17 17 18 17 17 18 18 18 18 17 17 17 16 17 17 18 19 19 19 18 18 18 18 18 18 19 20 20 20 20 21 21 21 21 21 22 22 22 22 22 22 22 22 22 22 20 18 16 15 16 16 16 16 15 14 14 13 13 12 12 11 10 10 10 10 10 9 9 9 9 9 9 8 8 8 8 8 8 9 9 9 9 9 9 9
18 19 18 17 16 16 17 17 17 17 17 17 17 17 17 18 18 18 19 19 18 18 18 18 18 19 20 20 20 20 20 20 20 20 21 21 21 21 21 21 21 21 21 21 21 21 21 19 15 13 15 15 14 15 15 14 14 13 13 12 11 11 10 10 9 9 9 9 8 8 8 8 8 7 6 6 6 7 8 8 9 9 9 9 8 9
18 19 18 17 17 16 16 17 17 17 18 18 17 17 18 18 18 18 18 17 17 18 18 18 19 21 21 21 22 22 21 20 20 19 20 21 21 21 20 20 20 20 20 20 20 20 20 20 15 12 13 13 13 14 15 15 14 13 12 11 11 10 10 9 9 9 9 9 8 8 8 7 7 6 6 6 6 7 8 8 8 8 8 8 8 8
17 18 18 18 18 16 15 15 16 17 17 18 18 19 19 18 17 18 17 17 17 18 17 17 20 20 19 21 22 23 22 21 20 20 20 20 20 20 20 21 20 20 20 19 20 20 19 19 17 13 11 11 13 15 15 14 13 13 12 11 10 10 10 9 9 9 9 9 8 9 9 8 8 7 7 8 8 8 8 7 7 8 8 8 8 8
18 18 17 17 17 16 15 16 17 16 17 18 17 19 20 18 17 17 16 17 17 16 16 17 19 18 18 20 22 23 22 21 21 20 20 20 21 21 21 21 21 20 20 20 20 20 19 18 17 14 12 13 15 15 14 13 13 12 12 11 10 10 9 9 9 9 9 9 9 9 9 9 8 8 8 8 8 8 7 7 7 7 7 7 7 8
18 18 18 17 16 16 16 17 17 16 17 18 16 16 17 17 17 16 17 16 15 15 16 16 17 18 18 20 21 20 21 21 20 20 20 21 21 21 21 21 21 21 20 20 20 19 20 18 14 13 13 15 15 13 13 13 12 12 11 11 10 9 9 9 9 9 9 9 9 9 9 8 8 9 9 8 7 7 7 6 6 6 7 7 7 7
18 17 17 17 17 17 17 17 17 17 18 17 15 15 16 16 15 15 17 17 16 16 17 15 17 19 19 21 20 19 20 21 21 20 19 20 21 21 21 21 21 21 21 20 19 19 19 15 12 13 14 13 12 12 12 12 12 11 11 10 10 9 9 9 9 9 9 9 9 9 9 8 8 8 8 7 7 6 6 6 6 6 6 6 6 6
16 15 15 16 17 18 18 16 14 16 16 15 16 17 17 16 16 15 15 17 17 17 17 17 17 19 20 20 20 20 21 21 21 21 21 21 21 21 21 21 21 21 21 21 20 19 17 12 10 12 11 11 11 11 11 11 11 11 10 10 9 9 9 9 9 9 9 9 9 9 9 9 8 8 7 7 6 6 6 5 5 5 6 6 6 6
15 15 15 16 17 17 17 16 13 13 15 15 16 18 18 17 17 16 15 16 17 17 18 18 17 18 20 20 20 20 20 20 21 23 23 24 24 23 22 21 20 20 21 21 19 18 17 14 12 10 9 9 10 9 10 10 10 10 10 9 9 8 8 8 8 8 8 8 8 9 9 9 9 8 8 7 7 6 6 5 5 5 5 5 6 6
16 16 16 16 16 16 17 17 15 14 14 15 16 16 16 17 16 16 16 15 16 17 17 16 16 17 19 20 21 20 20 20 20 21 22 23 24 24 24 21 20 20 19 18 18 18 17 16 15 12 9 7 7 8 9 9 9 9 9 9 9 8 8 8 8 8 8 8 8 8 8 9 8 8 8 8 7 7 6 6 5 5 5 5 5 5
18 17 15 16 17 16 17 18 17 17 15 14 16 16 16 16 16 16 16 15 16 17 16 14 16 17 18 20 21 22 22 22 21 22 22 22 22 22 21 19 18 19 18 17 17 17 17 16 15 12 8 6 7 7 8 8 9 8 8 8 8 8 8 8 8 8 8 8 8 8 8 9 8 8 8 8 7 7 7 6 6 6 6 5 5 5
18 18 17 18 18 16 17 18 19 19 17 14 16 17 17 17 17 17 18 17 18 18 16 14 16 18 19 21 21 21 21 21 21 21 19 18 19 18 18 18 19 19 18 17 16 16 16 16 13 9 7 7 7 7 7 8 8 8 8 8 8 8 8 8 8 8 8 8 8 8 8 8 8 8 8 8 8 7 7 7 7 6 6 6 6 5
16 18 18 17 16 16 17 18 18 18 17 15 15 17 17 18 18 18 18 19 18 18 16 15 16 18 19 20 20 19 19 20 21 20 19 20 20 18 19 21 21 20 19 17 16 15 14 13 10 7 7 7 7 7 7 7 8 8 8 8 8 8 8 8 8 8 8 8 8 8 8 8 8 8 7 7 7 7 7 7 7 7 7 6 6 5
17 18 18 17 16 16 16 16 17 18 18 16 15 16 17 17 18 17 17 18 17 16 17 18 18 18 19 20 20 20 20 21 21 22 22 21 20 20 21 21 20 20 20 18 16 14 12 11 8 6 6 7 7 7 7 7 8 8 8 8 8 8 8 8 8 8 8 8 7 7 8 8 8 8 8 8 7 7 7 7 7 7 6 6 6 5
17 17 18 17 17 16 14 13 16 17 17 17 16 17 17 16 17 17 16 16 16 16 17 19 19 19 20 20 20 20 21 22 22 23 22 20 20 22 22 21 20 20 20 19 17 15 11 10 9 6 6 8 7 7 7 7 8 8 8 8 8 8 8 7 7 7 7 7 8 7 7 7 8 8 8 8 8 7 7 6 6 6 6 6 6 5
16 16 17 17 17 15 14 14 16 16 15 16 16 16 16 16 17 16 15 15 16 16 16 18 19 19 19 20 20 21 21 22 23 23 22 21 23 24 22 22 22 22 21 22 22 20 15 13 10 6 6 7 8 8 8 8 8 8 8 8 8 8 8 8 8 7 7 7 8 7 7 7 7 8 8 8 7 7 7 7 6 6 6 6 5 5
15 15 15 16 16 14 15 16 16 16 15 14 14 15 15 15 16 16 16 15 16 16 16 17 18 19 20 21 21 21 21 22 23 23 22 22 24 23 21 22 22 22 23 24 23 23 21 16 9 5 6 8 8 9 8 8 8 8 8 8 8 8 8 8 8 7 7 7 7 7 7 7 7 7 7 7 7 6 6 7 6 6 6 5 5 5
15 14 13 15 16 14 15 16 16 16 16 15 15 15 15 15 15 15 15 16 16 16 16 16 16 18 20 21 21 21 20 21 22 22 22 23 23 21 20 21 22 22 23 23 22 21 20 15 7 5 7 8 8 8 9 9 8 8 8 8 8 8 8 8 8 8 8 7 7 7 7 7 7 7 7 6 6 6 6 6 6 6 5 5 5 4
14 14 13 14 15 14 15 17 17 16 17 16 15 15 15 15 15 14 14 16 16 15 16 16 15 17 21 22 22 21 20 20 20 21 21 22 21 19 20 21 21 21 21 22 22 20 19 16 10 7 7 8 8 8 8 8 8 8 8 8 8 8 8 8 8 8 8 7 7 7 7 7 7 6 6 6 6 6 6 6 6 6 5 5 5 5
14 14 13 13 14 14 15 16 15 15 15 15 14 14 15 14 14 13 13 15 16 16 16 16 15 17 21 22 21 21 20 20 19 19 20 19 18 18 20 20 20 19 19 20 21 19 17 15 10 6 7 7 7 7 7 8 8 7 8 8 7 8 8 9 9 8 8 7 7 7 7 7 6 6 6 6 6 6 6 6 5 5 5 4 4 4
14 13 13 13 13 14 14 14 14 13 13 12 12 13 13 13 14 14 14 15 15 15 16 15 14 17 20 21 20 20 20 19 18 18 18 17 18 18 20 20 20 20 19 19 19 16 15 14 10 10 12 8 6 7 8 8 8 7 7 7 7 8 9 9 9 8 7 7 7 7 6 6 6 6 6 6 5 6 6 5 5 5 5 4 4 4
14 13 13 12 12 12 13 13 13 13 12 11 12 13 13 13 14 14 14 14 13 14 15 14 14 16 18 19 19 18 18 18 18 18 18 18 18 18 19 19 19 20 19 18 18 16 15 15 14 15 14 8 7 9 9 9 8 7 7 7 7 8 9 8 8 8 7 7 7 6 6 6 6 6 6 6 5 5 5 5 5 4 4 4 4 4
13 13 13 12 11 12 12 13 14 14 14 12 13 13 13 13 13 13 13 13 13 14 15 14 14 15 17 18 18 18 18 18 18 19 18 18 18 17 17 17 17 16 15 14 13 12 12 12 12 13 12 9 9 10 10 10 9 8 8 8 7 8 9 8 8 7 7 7 6 6 6 6 6 5 6 6 5 5 5 4 4 4 4 4 3 3
10 11 12 12 11 12 12 13 14 14 14 13 14 14 13 13 13 13 12 12 13 14 14 14 15 15 15 16 16 17 17 17 18 19 18 18 17 15 14 12 11 10 9 9 8 9 9 9 9 10 10 9 10 10 10 10 9 8 8 7 7 8 8 8 7 7 7 7 6 6 6 6 6 6 6 6 5 5 4 4 4 3 3 3 3 2
9 10 11 11 11 12 12 13 14 13 13 13 13 13 13 13 13 12 11 12 13 13 12 14 15 13 13 14 15 16 17 17 17 16 14 12 10 9 8 7 7 7 7 7 7 7 7 7 8 8 8 8 9 9 9 9 9 9 9 8 9 8 8 8 8 7 7 6 6 6 6 6 6 6 6 5 5 4 4 4 4 3 3 3 2 2
9 9 11 11 11 11 12 11 12 12 12 12 12 12 12 13 13 12 12 13 13 12 12 13 14 13 13 14 14 14 12 12 11 9 7 6 5 5 5 5 5 5 5 6 6 6 6 6 7 7 7 7 7 8 8 9 9 10 10 10 10 10 9 9 8 7 7 6 6 6 6 6 6 6 5 5 4 4 4 4 3 3 3 2 2 2
9 9 10 10 10 10 11 11 11 11 11 11 11 11 12 12 12 12 12 13 12 12 12 12 12 13 13 11 9 8 6 7 7 5 5 4 4 4 4 4 4 4 5 5 5 5 6 6 6 6 6 6 6 7 7 8 8 8 9 10 10 10 10 9 8 8 7 6 6 6 6 6 6 5 5 4 4 4 4 3 3 2 2 2 2 2
9 9 10 9 8 9 10 10 10 10 10 10 10 11 11 11 11 11 11 12 11 11 12 12 12 12 9 6 5 5 4 5 5 4 4 4 4 3 3 3 4 4 4 4 4 5 5 5 5 5 6 6 6 6 6 7 7 7 7 8 8 9 10 9 8 7 6 6 6 6 6 5 5 5 4 4 4 3 3 3 2 2 2 1 1 1
8 8 8 8 7 8 10 10 10 11 10 10 10 11 11 11 11 11 12 12 12 11 11 12 10 8 5 3 4 4 3 3 4 4 4 3 3 3 3 3 3 3 3 3 4 4 4 4 5 5 5 5 5 5 6 6 6 6 6 6 6 7 8 8 8 7 6 7 6 6 5 5 5 4 4 4 3 3 3 2 2 1 1 1 0 0
7 7 7 7 7 8 9 9 10 9 8 9 10 10 10 11 11 11 11 11 10 9 9 8 5 3 2 3 3 3 2 3 3 3 3 3 3 3 3 3 3 3 3 3 3 3 4 4 4 4 4 4 4 5 5 5 5 5 4 4 5 5 6 7 7 7 7 6 6 5 5 5 4 4 4 3 3 2 2 1 1 1 0 -0 -0 -1
7 7 6 7 7 7 8 9 8 7 7 8 8 7 7 8 7 7 6 5 5 6 5 4 3 2 2 2 2 2 2 2 3 4 3 3 3 3 3 3 3 3 3 3 3 3 3 3 3 3 4 4 4 4 4 5 4 4 3 3 4 5 5 6 6 6 6 6 5 5 5 4 4 4 3 3 2 1 1 1 0 -0 -0 -1 -1 -1
6 6 6 6 6 6 7 7 6 6 8 7 5 4 5 5 5 4 3 2 2 4 3 2 2 2 2 2 2 2 2 2 3 4 3 3 3 2 2 2 2 2 2 2 3 3 3 3 3 3 3 3 3 4 4 4 4 3 3 3 3 4 4 4 5 5 5 5 4 4 4 4 3 3 2 2 1 1 0 -0 -0 -1 -1 -1 -2 -2
5 5 5 6 6 6 6 6 6 7 9 6 4 4 5 4 4 4 3 2 2 2 3 2 2 2 2 2 2 2 2 2 3 4 3 3 2 2 2 2 2 2 2 2 2 3 3 3 3 3 3 3 3 3 3 3 3 2 2 2 3 3 3 3 4 4 3 3 3 3 3 3 3 2 1 1 0 0 -0 -1 -1 -1 -2 -2 -2 -2
5 5 5 5 6 7 7 7 7 8 9 6 4 4 4 3 4 4 3 3 1 2 2 2 1 2 1 1 2 2 2 3 3 4 4 3 2 2 2 2 2 2 2 2 2 3 3 3 3 3 3 3 3 3 3 2 2 2 1 2 2 2 2 2 3 3 3 3 3 3 2 2 2 1 1 0 -0 -1 -1 -1 -2 -2 -2 -3 -3 -3
5 5 6 5 6 7 6 6 6 7 7 5 3 3 4 4 4 3 3 3 2 1 2 1 1 2 1 1 1 2 2 2 2 3 4 3 2 2 2 2 2 2 2 2 2 2 2 2 2 2 2 2 2 2 2 2 2 1 1 1 2 1 1 1 2 2 2 2 2 2 2 2 2 1 1 -0 -1 -1 -2 -2 -2 -2 -3 -3 -3 -4
5 5 6 5 5 6 5 4 5 6 6 4 2 3 4 4 4 3 3 3 2 1 2 1 1 1 1 1 1 1 2 1 1 2 3 3 2 2 2 2 2 2 2 2 2 2 1 1 1 1 1 1 1 1 1 1 1 1 1 1 1 1 1 1 1 1 2 2 2 1 1 1 1 1 0 -0 -1 -1 -2 -2 -2 -3 -3 -3 -3 -4
5 5 5 4 4 4 5 4 4 6 5 3 2 3 4 4 5 4 4 4 2 1 1 2 1 1 1 1 1 1 1 1 1 2 3 2 2 2 2 1 1 1 1 1 1 1 1 1 1 0 0 0 0 0 0 0 0 0 0 0 0 1 1 1 0 0 1 2 1 1 1 1 1 0 -0 -1 -1 -2 -2 -2 -3 -3 -4 -4 -4 -4
4 4 4 4 4 4 4 3 3 5 5 2 1 3 4 5 5 4 4 3 2 2 2 2 1 1 1 1 1 1 1 2 2 2 2 2 1 1 1 1 1 0 0 0 0 0 -0 -0 -0 -1 -1 -1 -1 -1 -1 -1 -1 -1 -0 -0 -0 0 1 1 0 0 0 1 1 1 0 0 0 -0 -1 -1 -1 -2 -3 -3 -3 -4 -4 -5 -5 -5
3 3 3 3 3 3 4 3 2 4 4 2 2 4 5 4 4 4 4 3 3 3 3 1 1 1 1 1 1 1 1 2 1 1 1 1 1 1 0 0 -0 -0 -0 -0 -0 -1 -1 -1 -2 -2 -2 -2 -2 -3 -2 -2 -3 -2 -2 -1 -1 -0 0 0 0 -0 -0 -0 0 0 0 -0 -0 -1 -1 -2 -2 -3 -3 -4 -4 -4 -5 -5 -6 -6
4 3 3 3 4 3 3 2 2 2 4 3 3 4 5 4 3 4 4 3 3 3 2 1 1 1 1 1 1 1 0 0 0 0 0 0 0 -0 -1 -1 -1 -1 -1 -1 -1 -1 -2 -3 -3 -3 -3 -4 -4 -4 -4 -4 -4 -3 -3 -2 -2 -1 -1 -1 -0 -0 -1 -1 -1 -1 -0 -1 -1 -2 -2 -2 -3 -3 -4 -4 -5 -5 -6 -6 -7 -7
4 3 3 3 4 3 2 2 3 3 3 4 3 3 4 4 4 4 3 3 2 2 2 1 1 1 1 0 -0 -0 -0 -1 -1 -1 -1 -1 -1 -2 -2 -2 -2 -2 -2 -2 -2 -2 -3 -4 -4 -4 -5 -5 -5 -5 -5 -5 -5 -5 -4 -4 -4 -3 -2 -2 -1 -1 -1 -1 -1 -1 -1 -1 -2 -2 -3 -3 -3 -4 -4 -5 -6 -6 -7 -7 -7 -8
4 4 3 3 4 3 2 3 4 4 3 4 4 3 3 4 4 3 3 2 2 2 1 1 1 0 0 -1 -1 -1 -1 -2 -2 -2 -2 -2 -3 -3 -3 -3 -3 -3 -3 -3 -3 -3 -4 -5 -5 -6 -6 -6 -6 -6 -6 -6 -6 -6 -6 -6 -6 -5 -3 -2 -2 -2 -2 -2 -2 -2 -2 -2 -3 -3 -3 -4 -4 -4 -5 -6 -7 -7 -8 -8 -8 -8
3 3 2 2 3 3 2 3 4 3 3 4 4 3 3 3 3 2 2 2 1 1 1 1 0 -0 -1 -2 -2 -2 -2 -2 -3 -3 -3 -4 -4 -4 -4 -5 -5 -4 -4 -4 -4 -5 -5 -6 -7 -7 -7 -7 -7 -7 -7 -7 -7 -7 -7 -8 -7 -6 -5 -5 -5 -4 -4 -3 -3 -2 -3 -3 -4 -4 -4 -4 -5 -5 -5 -6 -7 -8 -8 -9 -9 -9
2 2 2 2 2 2 1 3 3 3 3 3 3 3 3 2 2 2 1 1 1 0 0 -0 -1 -1 -2 -3 -3 -4 -4 -4 -4 -5 -4 -5 -5 -5 -5 -6 -6 -6 -6 -6 -6 -6 -7 -7 -8 -8 -8 -8 -8 -8 -8 -8 -9 -9 -9 -9 -8 -7 -7 -7 -7 -6 -5 -5 -4 -3 -3 -4 -4 -5 -5 -6 -6 -6 -6 -7 -7 -8 -8 -9 -9 -9
2 2 1 2 2 1 1 2 3 3 3 3 2 2 2 2 2 1 1 0 0 -1 -1 -2 -2 -3 -3 -4 -4 -5 -5 -5 -5 -6 -6 -6 -6 -6 -6 -7 -7 -7 -7 -7 -7 -8 -8 -9 -9 -9 -9 -9 -9 -9 -9 -10 -10 -10 -10 -9 -8 -8 -9 -9 -9 -8 -7 -6 -5 -4 -4 -4 -5 -5 -6 -6 -6 -7 -7 -7 -8 -8 -8 -9 -8 -9
2 1 1 1 1 1 1 2 2 2 2 2 2 2 2 2 2 1 -0 -1 -1 -2 -2 -3 -4 -4 -5 -5 -6 -6 -7 -7 -6 -7 -7 -7 -7 -7 -8 -8 -8 -8 -8 -8 -8 -9 -9 -10 -10 -10 -11 -10 -10 -11 -11 -11 -11 -11 -10 -10 -10 -10 -11 -11 -10 -10 -9 -7 -6 -5 -4 -5 -5 -6 -6 -7 -7 -7 -7 -7 -8 -8 -8 -8 -8 -8
1 1 1 1 0 -0 1 2 2 2 1 2 3 3 2 1 0 -0 -1 -2 -2 -3 -3 -4 -5 -6 -6 -7 -7 -7 -8 -8 -8 -8 -8 -8 -8 -9 -9 -9 -9 -9 -9 -9 -10 -10 -10 -11 -11 -11 -12 -12 -12 -12 -12 -12 -12 -12 -12 -12 -12 -12 -12 -12 -11 -10 -9 -8 -7 -5 -5 -5 -6 -6 -7 -7 -8 -8 -8 -8 -8 -8 -8 -8 -8 -8
1 1 2 1 0 1 2 3 3 2 1 2 3 2 0 -2 -2 -2 -2 -3 -4 -5 -6 -6 -7 -7 -7 -8 -8 -9 -9 -9 -9 -9 -9 -9 -10 -10 -10 -10 -10 -10 -10 -10 -11 -11 -12 -12 -12 -13 -13 -13 -13 -13 -13 -13 -14 -14 -14 -14 -14 -14 -13 -12 -11 -10 -9 -8 -7 -6 -5 -6 -6 -7 -7 -7 -8 -8 -9 -9 -9 -9 -8 -8 -9 -9
Height
804 808 813 810 805 802 800 801 799 794 798 803 807 808 807 808 801 793 787 778 779 782 776 772 766 760 761 760 756 753 752 750 744 740 738 737 735 730 728 722 717 716 709 700 700 703 704 704 705 707 709 711 714 716 718 720 721 723 725 727 729 733 737 740 743 746 749 753 756 760 762 764 768 771 774 777 779 781 782 785 788 790 792 794 796 798
806 809 809 800 792 792 794 796 797 799 803 804 807 809 808 808 798 788 785 776 778 783 773 768 765 757 755 754 752 751 750 748 740 735 731 728 728 725 720 716 711 708 703 699 698 696 699 701 702 704 705 707 709 710 712 713 715 718 720 722 724 728 731 733 735 738 741 743 746 749 752 755 760 764 766 769 771 775 778 781 784 787 789 792 794 796
809 810 805 796 792 793 795 797 800 803 805 806 809 811 808 806 797 786 782 777 779 782 773 770 764 752 750 748 746 747 743 740 734 730 726 722 722 720 714 710 705 703 699 697 695 691 693 698 699 700 701 702 703 705 707 709 711 715 716 718 721 724 726 728 731 734 736 739 743 746 749 753 756 759 762 765 768 772 775 778 781 784 786 789 791 793
806 804 797 794 796 798 798 799 801 803 805 805 806 808 804 801 797 786 779 776 780 781 773 772 762 747 747 743 739 740 733 731 731 726 723 720 717 712 706 705 703 701 697 694 691 688 689 694 695 696 697 698 701 702 704 706 708 709 711 712 716 719 722 725 729 732 736 740 745 749 751 754 757 759 762 765 767 770 773 775 778 780 782 785 787 790
795 792 791 793 797 800 800 800 803 805 802 796 797 803 798 793 792 786 781 780 782 780 774 774 758 733 732 736 731 731 730 730 729 724 722 718 710 704 703 704 703 699 696 693 690 686 686 690 692 692 694 696 697 698 698 700 702 703 706 708 712 716 719 723 727 731 736 740 744 748 752 755 758 760 762 764 765 767 770 771 773 775 778 781 784 787
793 790 789 792 796 799 802 802 803 805 798 788 789 793 787 783 786 785 786 789 789 783 776 779 765 729 719 730 726 722 727 727 726 726 721 711 704 703 705 702 699 697 694 692 690 685 683 687 690 691 692 694 694 694 695 696 699 701 704 707 711 714 718 722 725 730 733 736 739 742 745 749 752 755 756 757 759 762 764 765 768 771 775 778 781 784
792 788 786 789 792 797 805 805 800 798 797 790 784 781 779 782 787 786 789 793 790 785 781 783 778 750 725 724 724 719 721 722 720 721 715 707 705 705 702 697 695 695 691 689 688 683 681 684 688 689 690 691 690 690 692 695 697 700 703 706 709 712 715 719 723 727 730 732 735 737 738 740 742 745 747 749 753 756 758 761 765 768 771 775 778 780
786 787 788 790 794 799 805 800 790 793 798 790 781 776 775 780 785 786 790 793 790 787 786 780 780 775 745 721 718 715 717 720 716 713 709 707 706 701 697 693 692 691 687 686 684 679 679 682 685 686 686 685 685 686 689 692 694 697 700 703 706 710 713 716 720 723 726 728 731 733 735 737 738 739 742 746 750 753 756 759 762 765 768 771 775 777
782 784 787 790 796 800 797 787 783 791 793 783 782 784 781 782 785 787 787 791 796 792 787 781 781 785 756 720 717 720 719 720 713 710 708 706 703 698 695 693 690 688 684 682 681 678 678 681 682 682 681 681 681 683 686 688 692 695 698 701 704 708 710 713 716 719 722 724 727 730 732 734 736 739 742 745 748 750 753 756 759 762 765 768 771 774
782 783 785 788 792 790 784 781 782 786 786 783 787 787 786 788 788 791 787 785 795 789 782 783 782 780 752 715 719 727 721 717 710 709 710 704 701 697 695 693 688 685 682 679 680 680 680 680 680 679 679 680 680 682 684 686 690 693 696 699 702 704 707 710 713 715 719 722 724 727 729 731 734 738 741 744 747 750 752 754 757 759 762 765 767 770
782 784 787 783 780 777 776 784 788 786 785 786 787 783 784 789 787 793 791 785 793 785 772 773 772 774 755 719 716 720 710 708 705 704 705 700 698 696 693 690 686 685 682 678 677 678 680 680 680 680 679 680 681 682 683 684 687 691 694 697 699 702 705 707 710 712 715 718 720 722 724 727 731 734 738 741 744 747 749 752 754 756 759 761 764 766
784 786 784 775 772 774 775 782 790 791 788 787 787 785 785 789 786 792 794 791 796 782 764 763 765 772 754 718 712 715 708 707 703 699 699 696 694 692 690 687 684 684 681 678 678 678 680 680 680 681 680 680 681 681 682 683 685 688 691 695 698 701 703 705 708 710 712 715 716 719 721 724 726 729 732 734 737 740 743 746 749 752 755 757 760 762
778 778 776 772 772 773 774 780 787 789 788 789 791 793 797 799 796 795 796 798 795 775 762 766 770 767 739 708 708 711 704 704 702 700 698 694 692 688 686 686 685 684 681 682 683 681 681 680 680 680 679 679 681 680 681 682 685 688 690 693 695 697 700 702 705 707 710 712 714 716 719 722 724 726 727 729 731 734 737 740 743 746 748 751 753 755
771 769 773 773 770 769 771 777 780 778 783 789 787 789 798 802 801 798 795 798 790 768 766 775 771 758 730 706 703 699 693 695 695 695 695 692 692 689 688 690 689 686 683 683 683 680 681 681 680 681 680 680 680 681 682 682 685 688 690 692 694 696 699 701 703 705 707 709 711 714 717 720 722 723 725 727 729 731 733 736 738 739 741 744 745 747
779 771 768 766 762 765 768 766 765 765 774 783 777 778 785 785 787 788 782 780 772 760 769 780 767 746 724 706 699 695 694 694 693 693 696 696 694 694 693 691 689 686 683 681 680 679 679 679 680 681 681 681 682 684 684 683 684 686 688 691 693 695 698 699 701 703 704 706 709 712 714 716 719 720 723 725 727 729 731 733 735 736 738 739 741 744
783 771 759 761 762 765 765 760 760 763 771 778 777 777 777 768 768 773 768 762 762 764 768 768 755 733 715 701 696 698 698 694 692 692 693 691 690 693 691 685 684 684 681 680 679 678 678 679 679 680 680 681 682 684 685 683 682 683 685 689 691 694 696 697 698 699 701 704 707 709 710 712 715 717 719 721 724 726 727 729 731 733 735 736 739 743
776 766 755 761 765 763 765 764 761 762 767 776 780 773 765 760 759 766 766 758 764 771 757 744 739 727 715 703 694 696 695 690 689 688 686 686 686 687 685 681 682 681 678 678 678 678 680 681 681 680 680 681 681 683 685 684 683 683 684 687 690 693 695 695 696 697 699 701 703 705 706 708 710 712 713 715 718 721 724 726 728 730 732 734 737 739
769 765 755 757 762 763 769 771 764 762 765 770 772 765 759 761 760 765 772 767 767 768 748 733 729 724 721 711 696 693 692 687 686 684 686 689 684 680 680 680 680 678 676 677 676 677 680 681 681 680 680 682 682 684 686 687 687 686 686 686 687 689 690 692 696 698 698 698 698 700 701 703 704 705 707 709 712 716 719 721 723 726 728 730 732 735
770 772 761 753 760 765 766 768 765 763 765 766 765 763 764 768 763 763 771 769 765 762 747 734 727 723 722 710 695 692 690 686 684 682 685 685 678 676 678 678 677 676 676 674 672 673 676 679 681 679 680 682 683 684 686 688 689 688 687 687 686 687 688 691 694 696 697 696 695 695 697 699 700 701 703 704 707 710 712 714 717 720 722 725 728 731
772 778 773 759 760 767 766 765 766 763 764 767 767 766 767 767 763 761 761 759 756 754 745 737 729 720 710 699 691 689 686 684 682 681 683 680 675 677 680 679 677 676 674 672 672 671 671 675 680 680 680 681 682 683 683 685 686 687 688 688 686 686 687 689 691 693 695 694 693 693 694 696 697 699 700 702 705 706 707 709 712 715 718 720 724 727
772 776 779 768 762 767 766 760 760 759 759 763 766 767 766 763 761 761 757 751 749 748 743 738 731 716 700 691 685 681 682 683 681 680 681 678 677 681 682 680 678 676 674 673 675 675 674 676 679 680 680 681 682 683 682 682 683 684 685 684 684 685 685 685 686 687 689 690 690 690 689 691 693 696 700 702 703 704 705 707 709 711 714 716 719 722
773 772 774 771 766 766 759 750 750 752 751 755 759 760 761 760 762 765 758 745 741 740 735 732 729 714 697 687 679 674 679 684 683 683 680 678 681 683 682 680 679 678 677 675 675 677 677 678 679 679 679 679 680 680 680 681 682 681 680 680 681 682 681 680 681 680 681 683 685 684 684 685 689 693 697 700 701 701 702 704 706 708 711 712 714 717
766 768 770 769 764 759 751 746 749 751 751 755 758 757 757 758 761 765 758 744 737 733 726 725 725 709 691 685 680 675 677 680 682 683 681 682 685 684 681 681 681 681 679 677 676 677 679 680 680 679 678 678 678 678 678 678 678 677 676 677 678 677 675 675 676 677 679 681 681 680 681 683 685 689 692 694 696 696 697 698 701 704 707 709 711 714
762 767 769 765 760 756 752 749 750 752 756 761 758 756 757 755 751 749 745 740 739 734 729 728 723 706 689 684 683 679 678 679 681 682 684 686 685 684 682 681 680 680 678 677 677 678 680 681 680 679 678 677 677 675 675 674 673 673 672 672 673 671 670 670 672 675 678 679 679 679 680 681 682 685 687 689 690 691 692 694 696 699 702 706 708 710
761 762 765 767 766 762 758 755 750 749 755 759 754 750 750 749 747 744 741 742 741 735 731 728 718 704 693 688 687 685 682 679 677 678 683 685 683 683 683 681 679 678 677 678 678 679 681 681 681 680 679 678 677 674 672 670 669 669 668 668 668 665 665 667 669 671 674 675 677 678 678 677 678 680 681 683 685 686 689 691 692 694 697 701 704 706
762 759 761 769 770 764 759 754 747 743 746 750 748 746 744 744 746 745 743 743 736 726 722 719 710 702 697 692 690 687 683 680 675 673 679 684 683 682 684 684 685 686 687 688 688 688 687 686 684 683 681 680 679 677 675 672 669 667 665 665 664 662 662 664 666 667 669 670 672 674 674 674 674 674 675 676 678 681 686 689 689 691 693 696 699 702
771 767 762 764 763 758 753 747 742 742 743 744 743 741 741 741 742 743 744 739 728 720 716 709 704 703 701 699 696 691 687 683 676 671 673 680 684 687 692 697 699 701 702 702 700 698 696 694 692 689 686 683 681 680 679 676 674 671 669 666 664 663 661 661 663 664 664 665 666 667 669 669 668 668 668 669 673 677 681 684 686 687 689 692 695 698
773 769 761 759 758 753 749 745 742 744 744 743 741 739 738 737 737 741 742 732 724 724 717 706 704 707 706 704 699 693 690 687 685 687 692 697 702 704 707 709 710 711 711 710 708 706 705 703 700 696 692 689 686 682 680 678 675 673 671 669 666 663 660 659 660 660 659 661 662 661 662 663 664 663 663 665 669 673 676 679 681 683 685 688 691 693
774 769 758 756 756 751 750 749 747 746 745 743 744 742 739 736 734 734 730 722 723 725 715 706 707 706 703 703 702 704 707 707 708 713 716 717 717 717 717 717 718 719 718 716 715 713 711 707 704 701 697 694 691 687 683 680 677 674 671 668 664 661 658 657 658 657 656 657 656 655 655 658 659 660 661 664 666 668 670 673 675 678 680 683 685 688
774 769 757 757 758 755 754 752 749 749 748 745 744 742 738 734 731 727 722 718 720 717 709 710 710 703 705 717 723 727 730 726 723 724 723 724 726 726 726 726 727 727 725 723 720 717 715 711 707 704 700 697 694 690 687 683 679 676 672 667 663 659 656 656 656 653 653 653 650 649 651 653 654 656 658 659 661 662 664 667 671 674 676 678 680 684
771 766 757 759 764 759 753 749 747 747 747 745 742 738 736 734 730 727 724 721 719 714 708 707 705 706 721 738 740 737 734 730 727 728 729 731 732 732 732 731 731 731 729 727 724 720 716 713 709 706 702 700 697 693 690 686 682 678 673 668 663 658 655 654 652 650 649 648 646 646 649 650 650 651 651 652 655 657 659 661 664 668 670 673 676 679
773 770 763 765 768 758 748 748 745 741 743 744 740 734 730 729 727 723 717 713 711 710 707 705 712 728 744 746 740 737 737 735 733 734 735 736 735 735 734 734 733 732 730 727 724 721 717 713 710 707 705 702 699 695 692 688 684 679 674 669 664 659 655 651 648 646 645 643 642 644 645 646 647 647 646 647 649 651 654 657 659 662 665 667 670 673
774 774 772 771 768 757 749 746 744 748 750 742 733 729 724 720 720 717 713 716 718 718 721 728 741 754 756 749 744 742 741 740 739 737 738 738 738 737 736 735 733 731 729 726 724 721 718 714 711 709 706 703 700 698 695 691 687 681 676 671 665 659 655 650 646 644 641 639 640 640 641 643 644 644 643 643 644 647 651 653 655 657 659 661 665 669
770 772 772 771 768 761 751 747 752 760 754 737 731 738 737 734 736 737 739 745 743 738 742 751 757 758 755 752 751 749 747 745 742 738 737 738 737 736 736 734 732 730 727 725 722 721 718 715 712 709 706 704 700 697 693 689 685 679 673 669 664 659 654 650 646 643 640 639 639 639 638 638 639 640 640 641 643 645 648 649 651 653 656 658 662 664
767 768 769 767 767 762 754 756 764 757 738 732 741 747 744 742 744 748 755 759 756 752 754 758 758 757 757 755 753 752 750 746 740 735 736 736 736 736 736 733 732 729 726 723 720 719 716 713 711 708 705 702 699 695 691 687 682 677 670 666 663 659 655 652 648 644 642 640 639 639 639 638 637 638 640 641 642 643 645 647 649 651 653 656 658 660
766 768 767 764 762 760 756 757 754 735 722 733 745 743 742 744 745 747 751 755 758 757 756 758 759 758 758 755 753 751 748 743 738 734 734 736 736 737 735 733 731 728 725 722 719 717 715 713 711 708 705 702 699 695 691 687 682 677 671 667 664 660 656 654 650 646 644 642 640 640 640 639 638 639 640 642 642 642 643 645 647 648 650 653 655 658
764 765 765 762 754 748 747 743 733 722 721 735 746 746 749 752 750 751 753 754 758 758 755 757 758 756 756 755 751 748 744 738 734 731 731 735 735 735 734 732 730 727 723 721 718 715 714 712 710 708 705 702 699 694 690 686 682 678 673 668 664 660 657 655 653 649 646 643 641 641 641 639 638 638 638 640 641 641 641 643 644 646 647 649 652 655
759 758 759 760 751 743 745 747 742 734 730 742 755 755 750 749 749 753 756 755 756 756 755 755 755 753 754 753 750 746 741 737 733 728 727 730 730 730 730 728 726 724 720 718 716 714 712 710 708 706 704 702 698 695 691 687 682 677 673 669 665 661 657 655 653 651 649 645 643 642 641 640 638 637 637 637 638 639 641 642 643 644 644 646 647 650
755 755 755 760 757 751 753 757 752 740 735 748 758 752 746 746 745 749 753 750 752 755 753 752 753 751 751 750 748 745 743 743 738 729 724 726 726 726 726 723 722 721 719 717 716 713 711 709 706 704 703 701 698 695 691 686 681 677 673 669 666 663 659 656 654 653 650 647 645 643 642 640 638 636 636 635 636 637 639 641 642 643 644 644 645 647
753 754 755 759 760 756 755 758 751 738 736 748 753 747 745 743 740 746 749 743 747 753 751 748 750 748 747 748 747 745 745 744 738 728 724 726 725 724 724 722 720 719 718 716 715 713 711 709 706 703 701 700 697 694 691 686 680 676 673 669 667 664 661 658 656 653 651 648 646 644 641 640 638 636 635 635 635 636 638 639 641 643 644 644 645 647
757 756 757 758 759 757 755 758 754 741 737 747 751 745 741 738 739 745 744 738 742 747 744 745 747 745 744 745 744 743 742 739 735 730 726 725 725 724 723 722 720 719 717 715 713 711 709 706 705 703 701 700 698 695 691 687 681 676 672 669 667 665 662 659 656 653 651 649 646 644 641 639 638 635 634 633 634 636 637 638 640 641 643 644 645 646
759 759 758 756 758 758 754 757 758 748 740 745 748 740 736 741 744 741 736 737 740 740 739 743 743 741 742 742 740 739 737 734 734 731 728 726 725 723 721 720 719 717 716 714 712 710 707 704 702 701 699 699 699 696 692 687 681 675 672 668 667 665 662 659 656 653 650 648 646 643 640 638 637 635 633 633 634 635 636 637 639 640 642 644 645 646
753 756 757 752 752 756 758 759 762 754 741 739 743 738 736 742 743 736 733 736 737 736 738 741 739 739 740 739 737 737 735 733 732 730 727 726 723 721 720 719 717 715 713 712 710 708 707 703 700 698 697 696 696 694 691 686 680 675 672 669 666 665 662 658 656 653 650 647 645 642 639 637 636 635 633 632 633 634 635 636 638 639 642 644 645 646
750 754 757 751 747 753 759 755 749 744 737 736 741 741 738 737 735 733 734 735 734 735 737 737 736 737 736 736 736 735 733 733 730 728 726 724 722 720 719 716 716 714 712 710 708 706 705 703 699 697 695 694 693 691 688 684 679 673 670 668 666 664 661 657 654 652 648 646 644 641 639 637 635 634 633 631 631 632 634 635 637 638 640 642 644 646
748 746 751 751 745 746 749 743 735 735 736 735 735 736 734 732 731 732 733 733 732 733 734 734 734 734 734 735 735 734 732 731 728 727 726 724 722 720 718 716 714 713 710 709 707 705 705 703 700 696 693 690 689 687 684 681 678 672 667 666 666 664 660 656 653 651 648 645 642 640 638 636 634 633 631 630 630 630 631 632 635 637 639 641 642 643
747 747 750 750 745 743 743 738 734 736 735 732 731 731 731 730 730 731 732 731 731 731 731 732 732 731 733 734 733 733 732 729 727 727 725 723 722 719 717 715 713 710 709 707 705 704 703 701 698 694 689 684 683 683 681 678 677 672 666 663 664 663 659 656 653 650 647 643 640 637 635 633 632 631 630 629 628 628 629 630 631 634 636 639 640 640
748 748 749 746 744 747 745 737 732 733 732 729 729 729 728 728 729 729 730 728 727 728 729 730 731 731 732 732 732 732 730 728 727 726 723 722 721 717 715 714 711 709 707 704 703 702 701 699 696 693 688 682 677 678 678 675 673 670 665 662 662 661 658 656 653 650 645 641 637 634 632 631 629 629 628 627 626 627 627 627 629 631 633 635 636 637
746 746 747 744 743 745 742 733 729 730 729 728 729 728 726 726 726 726 726 726 725 727 728 729 730 731 730 729 730 730 729 727 726 724 722 721 718 716 714 712 709 707 704 702 701 700 698 696 694 691 688 682 676 675 675 672 668 666 664 662 661 659 657 653 651 648 643 638 634 631 628 627 626 626 625 624 623 623 623 624 626 627 628 629 630 632
744 744 743 741 742 741 737 731 729 729 727 726 725 723 722 723 722 722 724 725 725 727 727 727 729 729 728 728 728 729 728 725 723 722 722 719 716 714 712 709 707 705 702 699 699 697 695 693 690 688 685 680 675 674 672 668 665 662 661 661 660 658 656 650 647 644 640 634 631 627 624 623 623 622 621 621 619 619 619 619 620 622 624 625 627 629
743 742 737 739 744 742 733 727 725 726 726 723 720 718 719 721 722 722 723 725 725 726 726 727 727 727 726 727 727 727 726 723 720 721 720 717 714 711 708 706 704 701 698 696 695 694 693 690 687 685 681 676 674 673 669 665 662 659 658 659 658 657 654 649 644 639 634 629 626 623 620 620 619 618 618 617 616 616 616 616 617 619 620 622 624 626
735 733 731 734 736 730 722 719 720 724 724 720 717 718 720 722 722 722 723 724 725 726 727 728 727 725 724 724 724 725 724 721 719 719 717 714 711 708 705 704 702 697 694 692 691 690 688 685 684 682 677 673 671 670 667 664 659 655 655 657 656 654 651 646 641 635 628 625 622 619 618 617 615 614 614 613 612 613 613 614 615 616 617 619 621 623
Wind_Speed
3 3 4 6 9 12 12 13 16 16 10 7 4 6 8 8 10 10 12 12 5 6 10 12 18 18 14 14 14 14 12 14 18 17 15 14 14 14 15 17 18 17 18 20 23 22 24 28 28 27 29 30 32 34 35 36 39 42 42 42 44 44 43 43 43 44 44 42 40 39 40 41 41 42 42 42 42 42 42 42 41 41 40 40 39 38
2 6 8 11 14 13 12 12 12 9 6 6 6 8 8 8 13 12 12 15 5 3 10 10 17 20 16 14 12 12 12 14 18 20 19 18 15 14 16 19 19 16 16 16 20 21 20 22 22 22 25 28 30 34 36 38 41 43 43 43 44 43 44 47 48 48 47 47 47 45 46 46 45 45 46 45 46 45 43 42 41 41 40 40 40 39
3 5 10 13 12 8 7 5 4 6 6 8 5 6 8 6 10 11 12 15 5 3 8 8 15 18 14 15 12 12 14 15 17 19 20 19 16 15 17 18 18 17 17 16 17 19 15 16 19 20 23 29 32 33 36 38 40 40 42 42 42 43 45 47 48 48 48 47 46 43 43 43 42 43 45 44 44 44 43 42 41 40 40 41 41 40
5 6 11 14 10 7 8 4 3 5 5 7 6 6 8 4 6 9 7 8 4 4 6 9 15 15 11 15 12 14 17 14 15 19 19 18 17 20 20 17 16 18 18 18 18 18 12 10 15 18 22 27 28 30 33 36 38 40 42 43 43 44 45 46 46 46 44 41 39 36 35 36 35 35 37 37 37 40 41 41 41 41 41 41 41 40
9 6 6 8 8 8 9 8 5 5 7 9 10 8 10 10 11 12 5 6 6 4 6 9 15 12 8 12 10 9 12 11 13 16 16 17 20 20 17 15 16 17 18 19 18 19 13 7 11 17 20 23 26 29 33 37 39 40 42 43 42 42 43 44 44 43 40 37 36 32 28 28 27 26 28 30 31 36 39 41 43 43 42 42 41 40
10 5 4 4 6 8 8 8 6 7 9 11 8 11 16 16 13 13 8 7 6 5 5 4 9 10 4 9 8 6 6 9 9 12 16 19 19 16 13 14 15 15 16 16 17 19 16 7 8 13 17 20 24 29 34 36 38 38 38 39 39 40 40 41 42 42 41 40 39 37 33 31 28 25 29 34 36 39 42 43 44 43 43 42 41 40
6 5 5 7 8 7 6 6 7 10 8 10 6 12 16 14 10 11 8 4 2 4 4 2 1 10 4 6 7 7 7 9 9 11 17 17 14 12 12 13 13 12 14 13 14 17 15 7 6 9 15 20 25 30 32 31 33 34 35 36 38 39 40 40 41 42 42 41 41 41 40 38 37 34 35 41 42 43 44 43 42 43 42 42 41 41
4 3 4 5 4 5 5 7 8 11 7 7 5 9 10 9 8 8 5 4 4 3 4 1 4 7 11 4 8 10 9 10 12 14 15 13 12 14 15 14 12 13 13 12 13 16 13 6 7 10 16 23 27 28 27 28 31 33 34 36 38 38 39 40 42 44 44 44 43 43 41 39 40 39 38 40 40 40 42 40 40 41 42 42 42 41
4 3 5 5 3 5 7 7 6 11 7 6 1 4 6 5 5 4 5 5 1 4 4 4 5 2 12 7 4 5 7 9 13 14 13 12 13 15 14 13 13 13 14 13 12 14 12 6 8 13 18 23 25 24 25 28 30 32 33 35 37 38 39 40 43 45 45 45 44 44 41 39 39 38 35 35 36 36 38 39 39 39 41 41 41 41
2 3 5 7 5 6 8 5 6 12 8 3 4 4 4 3 2 4 4 3 2 4 6 5 6 3 11 8 2 1 3 7 10 10 10 11 12 13 12 13 14 12 13 12 9 9 9 7 10 15 16 17 20 21 23 26 28 30 33 34 37 38 39 41 43 45 45 44 44 43 42 39 36 34 31 30 31 32 34 36 37 38 40 41 41 41
4 1 3 5 5 6 5 1 4 9 6 2 2 3 5 4 4 3 0 3 2 7 6 10 11 6 7 6 4 3 4 6 6 5 7 9 10 12 11 12 13 11 11 12 10 7 6 6 7 10 11 12 15 19 22 25 28 31 33 35 37 38 38 40 43 45 46 45 45 44 43 41 38 35 32 30 31 32 33 35 36 38 39 40 41 42
4 2 2 4 4 4 4 1 1 1 1 1 1 3 4 5 4 5 4 3 2 9 5 11 13 8 7 7 3 5 6 5 6 5 7 9 10 11 11 12 11 9 10 11 10 8 5 4 4 5 9 11 14 19 22 25 28 31 33 35 35 36 37 40 42 45 46 45 45 45 44 43 41 39 38 37 36 36 37 37 37 37 38 40 41 42
3 5 4 3 2 5 5 2 3 4 2 3 2 1 2 4 4 3 3 1 4 9 5 8 8 5 11 10 3 7 11 9 8 7 8 10 11 12 11 11 10 10 9 7 8 8 6 5 5 6 8 11 15 19 22 25 28 30 32 35 36 37 39 40 42 44 45 45 45 44 43 42 40 40 41 41 40 40 40 40 39 40 41 41 42 44
4 4 1 1 3 4 7 5 3 2 3 6 5 4 3 2 3 4 4 2 5 7 3 3 4 4 10 8 6 12 13 10 7 8 9 10 11 11 9 9 10 12 12 8 7 7 6 6 6 6 7 10 13 17 21 24 27 29 31 34 35 36 38 40 41 43 44 45 45 43 43 42 40 40 41 41 40 40 41 41 42 43 44 44 46 47
3 6 3 5 3 4 9 9 7 4 4 6 6 5 5 5 4 5 4 5 8 6 3 1 4 5 6 4 6 10 7 7 5 6 6 7 8 8 8 8 10 11 12 9 8 7 7 7 7 6 8 10 11 14 19 23 26 29 31 33 34 34 36 38 40 42 44 44 43 43 43 42 42 41 40 40 40 40 41 41 42 43 44 45 46 46
4 8 6 3 0 7 7 6 4 5 1 3 3 5 3 5 5 5 7 9 8 4 3 3 4 5 5 6 8 7 7 8 8 7 5 6 7 6 6 7 7 9 9 8 8 8 7 7 6 6 9 11 12 14 19 23 27 30 31 32 33 34 37 39 41 43 43 43 42 43 44 43 42 41 40 41 41 41 42 42 43 43 44 44 43 43
4 6 2 2 2 4 5 3 2 3 1 0 3 3 4 3 6 5 8 7 5 5 6 6 8 6 4 9 9 3 4 7 7 6 5 7 6 4 5 6 6 7 7 7 8 7 7 6 5 6 8 11 13 16 19 22 26 29 30 31 32 32 34 38 41 42 42 42 42 43 44 44 43 43 43 44 43 42 41 41 42 42 42 42 42 42
5 5 5 4 6 4 2 1 4 3 3 3 3 4 2 2 3 3 3 3 4 8 7 8 13 11 5 8 6 3 4 8 8 6 5 7 5 2 5 6 6 7 7 7 7 6 6 5 5 6 8 10 12 14 17 20 22 25 27 30 33 34 36 38 39 40 41 42 43 44 45 45 46 47 47 46 45 43 41 41 42 42 42 42 42 41
1 4 7 6 5 3 2 2 5 5 3 4 4 2 1 2 3 2 2 3 6 9 6 7 13 11 7 10 10 9 10 10 11 7 5 8 5 2 5 7 7 7 7 7 7 6 5 5 6 6 7 9 12 14 17 18 20 23 26 29 32 35 36 36 37 39 40 42 44 44 45 46 47 47 48 47 44 42 43 44 44 43 43 42 41 41
0 2 5 5 3 2 3 1 5 6 2 1 2 2 0 3 4 3 3 2 5 9 8 8 10 8 7 9 12 15 11 8 9 7 6 9 6 3 5 6 7 7 7 7 7 7 5 4 4 5 7 10 12 15 18 20 22 25 26 27 31 33 33 33 36 38 39 41 43 42 42 44 46 47 47 45 43 43 44 45 44 43 43 42 41 41
1 2 4 5 5 3 1 4 6 7 4 2 3 4 4 3 2 3 3 2 4 8 8 9 9 7 4 5 13 18 10 7 8 7 7 8 6 5 6 7 7 7 7 7 6 8 8 5 4 4 7 10 12 15 19 21 23 25 27 30 32 32 32 34 37 39 42 43 43 42 43 44 45 45 44 42 42 43 43 42 43 43 43 42 42 42
1 3 4 4 4 6 9 8 8 8 7 5 5 5 5 5 3 6 7 5 5 7 8 9 9 7 3 5 15 17 8 6 7 7 8 8 6 7 8 7 7 7 7 8 6 6 7 6 4 4 5 9 12 16 19 21 23 25 29 32 32 32 34 37 39 42 45 44 43 45 46 45 44 43 42 40 41 42 42 42 43 43 42 42 42 43
3 2 2 5 7 9 14 11 7 8 5 3 3 4 5 5 4 6 9 8 7 8 8 9 10 6 5 7 14 15 12 9 7 8 9 8 7 8 9 8 7 7 7 8 7 6 6 6 6 6 7 9 13 17 18 20 24 28 31 32 31 34 38 40 41 42 42 41 43 45 44 43 41 41 41 42 43 44 44 44 43 43 42 42 42 43
2 3 3 6 5 6 11 12 9 6 4 3 5 6 8 8 9 11 10 7 7 8 7 9 10 5 4 6 12 14 16 14 9 8 8 7 7 7 8 8 7 8 8 7 8 6 5 5 6 6 7 7 11 15 18 21 25 28 31 32 33 36 41 41 40 39 38 39 41 41 40 40 40 39 40 42 44 46 46 45 43 43 43 42 42 43
3 2 3 5 4 4 6 8 9 5 4 4 7 9 11 13 15 13 9 7 8 10 12 12 11 7 3 6 9 12 16 15 14 11 6 5 7 7 7 8 7 7 8 9 9 9 8 7 7 7 6 7 11 15 18 20 24 28 31 33 35 38 40 39 37 37 37 38 39 38 39 40 39 40 41 43 45 46 45 43 42 42 42 42 43 43
2 3 3 4 6 6 7 6 6 4 2 2 4 8 11 13 15 13 9 9 10 12 15 14 12 9 6 7 10 14 17 18 20 18 8 6 7 7 5 6 7 8 11 13 14 14 13 12 12 12 10 9 13 17 20 22 24 26 29 32 35 37 37 36 35 36 37 38 38 39 40 40 40 41 43 46 46 45 43 42 41 41 41 42 43 43
1 3 5 9 10 10 12 11 9 8 8 8 8 9 10 10 11 10 8 10 12 12 13 13 13 14 11 10 13 15 18 20 22 22 16 8 7 7 7 8 11 12 13 14 14 15 16 15 16 18 17 18 21 21 22 24 25 26 27 29 33 33 34 34 33 34 36 38 38 39 40 41 42 44 46 47 45 43 41 40 40 41 41 42 42 42
2 4 8 13 15 15 17 18 16 15 15 16 17 16 15 14 13 12 12 13 12 11 12 12 13 15 13 12 16 18 18 18 16 16 16 15 14 13 13 14 16 15 14 15 14 15 16 15 15 16 16 20 27 29 29 28 27 28 28 31 32 30 31 32 31 32 35 36 37 39 41 42 43 45 45 43 41 40 39 40 41 42 42 41 42 42
2 4 7 12 15 15 16 18 18 17 16 16 17 18 20 20 20 19 20 19 15 14 15 14 16 19 15 12 14 12 10 11 12 12 13 15 15 16 16 16 17 16 16 16 15 15 15 14 15 15 15 18 24 28 31 32 32 32 31 33 34 31 31 30 29 31 34 34 37 41 42 42 42 42 40 38 38 39 40 41 42 42 41 42 43 43
3 3 4 8 11 10 12 15 15 16 16 16 17 19 21 22 24 24 24 23 21 21 21 20 22 21 12 8 8 8 10 10 11 12 14 15 15 14 15 15 14 14 14 15 14 14 14 14 14 14 15 18 22 26 28 29 32 35 35 36 36 36 33 28 28 32 33 34 38 42 41 40 39 38 37 38 39 40 41 41 41 41 42 42 42 42
4 3 4 6 7 8 10 13 13 13 14 15 16 17 18 19 21 22 20 19 20 21 22 24 23 15 7 9 8 9 10 11 12 13 14 14 12 12 13 12 12 12 13 13 13 13 14 14 15 16 16 17 22 26 28 29 32 34 36 38 39 39 35 28 28 32 32 35 40 40 37 37 37 36 37 39 40 40 41 41 41 42 42 41 41 41
3 3 6 7 6 7 10 12 13 13 13 14 15 17 19 18 17 17 17 17 17 17 19 19 14 6 7 10 9 10 13 14 12 11 11 11 12 12 12 11 11 12 12 13 13 13 15 15 15 16 16 19 24 28 29 30 32 33 35 39 42 42 38 30 29 30 32 37 39 37 35 35 35 36 38 39 40 40 40 40 40 41 41 41 42 41
4 4 4 5 6 8 11 14 12 10 12 13 12 12 14 14 13 13 13 13 11 8 7 5 2 4 7 10 11 13 14 13 11 7 8 10 11 11 11 11 11 12 12 12 13 13 14 14 13 15 18 21 25 28 30 31 30 31 35 38 41 42 38 32 30 30 33 36 35 33 33 33 33 35 37 38 38 38 37 38 39 41 41 42 41 41
7 7 5 5 6 9 14 14 10 9 13 10 3 4 2 2 4 5 3 6 9 7 5 5 4 5 7 9 11 12 10 11 11 5 4 9 11 11 12 12 12 13 12 12 13 13 13 12 13 18 22 25 28 31 33 33 33 36 39 39 40 41 38 32 29 29 31 32 31 31 31 31 33 35 35 34 34 34 35 37 39 39 39 39 39 40
9 9 6 4 5 7 8 8 8 11 10 2 5 5 3 4 8 7 6 8 10 9 9 8 7 7 8 8 7 7 8 10 10 6 4 11 13 12 12 12 12 13 13 13 13 13 13 13 16 20 24 27 30 32 34 35 37 41 43 41 39 39 38 33 29 27 27 27 27 27 28 29 31 31 30 30 31 32 34 36 36 36 37 37 38 40
10 7 4 3 4 5 4 5 9 9 4 3 4 6 4 3 7 6 5 7 8 6 6 6 5 5 6 6 6 6 8 10 8 4 2 10 12 11 11 12 12 13 12 12 13 13 14 16 18 22 26 27 30 31 31 34 37 39 41 41 38 37 37 33 29 27 25 24 24 24 24 26 26 26 26 26 28 31 33 34 35 35 36 35 36 36
10 7 4 4 5 5 6 7 8 8 5 1 2 5 3 1 3 3 2 2 4 2 2 3 2 3 3 5 7 7 9 9 6 2 2 6 9 9 9 10 11 12 12 13 15 18 20 22 24 25 27 29 30 30 31 35 38 37 37 38 37 37 36 32 29 28 26 24 24 22 22 23 24 25 25 26 29 31 32 33 34 34 35 34 34 34
9 8 6 5 5 4 5 5 4 6 4 1 2 5 4 5 5 3 3 2 3 0 2 3 0 2 2 4 6 7 9 10 8 5 4 8 10 9 9 10 9 12 14 16 19 21 24 27 27 28 29 29 30 30 32 35 37 35 33 34 35 36 34 29 28 30 30 29 26 23 22 23 24 25 26 27 30 31 30 31 32 33 35 35 35 34
1 3 3 4 4 4 5 5 4 5 3 3 3 6 6 7 5 3 4 3 4 2 5 4 2 3 2 3 4 5 7 8 8 8 9 11 11 10 10 10 10 12 16 19 20 22 25 27 28 29 30 29 29 32 34 36 35 32 30 31 33 34 31 28 29 32 32 31 28 24 23 23 24 26 26 28 29 29 29 30 30 31 32 34 34 33
4 1 2 4 5 5 5 6 5 4 2 2 2 5 6 6 2 2 6 3 3 3 6 5 4 5 4 4 3 2 5 6 7 10 11 11 11 10 9 11 11 12 15 18 20 22 25 26 26 27 28 28 30 34 35 34 33 30 29 30 30 29 29 31 34 35 33 30 27 24 23 23 24 26 26 27 27 27 27 28 28 29 30 30 30 31
1 2 2 4 6 7 7 6 4 3 3 1 3 6 6 4 2 4 8 3 2 5 5 6 5 6 4 4 4 1 3 6 7 11 13 11 10 9 9 11 13 15 16 19 22 23 24 24 24 25 26 27 31 34 34 32 31 30 30 29 27 27 31 35 38 38 35 31 27 24 22 21 23 24 24 25 24 24 25 26 26 28 29 29 28 28
1 2 2 3 4 3 4 4 5 5 2 2 2 6 3 2 2 6 5 2 4 6 5 6 6 6 5 5 5 4 6 7 7 10 11 11 10 9 9 11 13 15 17 19 21 22 22 23 25 25 26 28 30 31 32 32 30 29 29 27 26 30 35 38 39 40 38 34 29 25 22 21 21 21 22 22 22 23 24 25 26 27 28 28 27 27
2 2 2 2 3 1 2 3 5 6 3 3 4 4 2 0 4 6 5 4 5 5 6 6 5 5 5 5 6 7 7 8 9 9 9 9 9 9 9 10 11 13 15 18 20 21 21 22 24 25 28 30 30 30 30 29 28 28 27 27 29 34 37 37 38 39 39 36 32 28 24 21 20 20 20 20 21 23 23 24 25 26 26 27 26 25
3 3 3 3 3 3 4 5 5 4 3 2 4 3 4 5 6 5 6 6 4 4 5 5 5 6 6 5 6 7 7 8 10 9 8 9 9 9 10 10 11 13 15 17 19 21 21 21 23 26 30 31 31 31 30 27 26 27 28 28 33 36 37 37 37 37 37 36 34 30 26 22 19 19 20 20 22 23 23 23 24 25 26 27 26 24
4 4 4 4 4 4 5 5 5 3 5 7 7 7 9 9 7 5 6 6 5 4 5 4 5 7 6 5 6 6 7 9 9 8 8 9 9 10 10 11 13 14 16 18 20 20 20 21 24 27 30 31 31 31 30 28 26 27 31 33 35 36 35 34 34 34 34 35 34 32 28 23 20 19 20 21 22 24 24 24 24 24 25 26 25 24
4 3 2 1 4 5 4 6 7 7 8 10 10 8 8 8 6 5 5 6 6 5 5 4 6 6 5 5 5 5 7 9 9 9 9 9 10 11 11 12 14 16 17 19 20 21 22 23 25 26 29 33 34 31 30 32 30 30 35 38 35 32 33 34 35 35 34 33 33 32 29 24 21 19 20 21 23 24 24 25 26 25 24 24 24 23
4 4 3 4 6 6 5 7 8 8 9 10 9 8 8 8 7 5 6 7 7 6 5 5 5 5 5 5 5 6 8 9 9 10 9 8 9 11 11 11 13 16 19 20 20 22 23 21 21 23 26 32 36 33 31 34 35 36 39 40 34 30 32 35 36 35 34 33 33 31 28 25 22 21 20 21 22 23 23 24 26 25 24 25 25 23
3 3 4 6 7 6 8 10 10 9 10 9 9 8 8 9 9 7 7 7 5 4 4 4 4 4 4 5 5 5 7 9 10 10 9 8 9 10 11 12 13 16 21 24 23 23 22 20 20 21 23 29 35 35 34 36 39 39 38 36 33 31 34 37 36 35 35 35 32 30 28 26 24 22 21 22 23 24 24 25 26 27 27 29 28 25
2 1 3 5 5 6 8 10 11 11 10 9 11 11 9 9 10 8 6 5 4 4 5 4 4 4 4 6 6 5 8 11 10 8 8 9 10 11 11 13 16 18 22 24 24 23 22 23 24 24 24 30 35 37 37 38 39 38 36 34 34 35 36 38 36 35 36 36 31 29 27 26 24 24 23 23 24 26 27 28 29 30 29 29 30 28
2 6 8 5 4 7 9 11 12 10 8 8 11 11 7 5 5 4 3 3 5 5 5 5 6 5 5 6 6 5 8 11 10 9 9 10 11 13 14 16 18 21 23 23 23 23 23 25 26 26 28 33 35 35 36 37 38 39 38 37 37 36 36 36 33 32 34 34 31 28 26 24 24 25 24 24 23 24 25 26 28 30 28 27 28 29
7 10 10 7 8 11 12 13 10 5 5 9 10 7 2 1 2 3 4 4 3 3 3 4 7 8 8 8 7 6 8 10 10 10 9 10 14 17 20 20 19 20 24 24 23 22 23 25 27 27 30 35 35 34 34 37 42 45 43 39 36 35 35 35 31 28 28 28 27 27 26 24 24 24 24 24 24 22 22 21 22 26 27 25 25 26
Wind_Direction
146 164 169 192 214 221 216 204 215 231 243 253 243 240 244 255 262 254 262 266 247 273 268 256 268 271 266 262 260 264 269 273 273 269 262 258 259 262 260 260 262 260 260 268 273 263 250 250 247 241 235 227 224 224 221 216 213 213 212 209 207 206 202 198 195 195 195 195 195 197 200 204 207 209 211 214 216 217 218 217 217 217 217 216 216 215
156 197 209 214 219 221 222 219 225 243 269 262 246 262 260 248 262 259 261 271 252 231 263 261 273 275 269 265 260 258 259 258 264 267 268 263 257 260 262 262 263 262 264 270 275 268 254 251 249 238 228 219 215 216 216 214 214 213 211 209 207 202 199 199 198 195 195 197 197 197 200 203 204 207 209 211 213 215 216 216 217 217 217 216 216 215
223 229 229 228 232 241 249 232 222 236 240 244 242 263 264 248 272 268 251 265 258 216 271 275 270 272 271 268 254 246 249 245 251 258 263 267 264 262 260 262 266 267 272 271 270 272 259 243 240 230 220 216 216 215 214 214 213 210 208 208 206 201 199 199 198 197 197 199 199 200 201 201 202 206 209 210 212 212 213 214 216 217 217 217 217 215
235 240 233 233 234 243 260 247 223 259 244 225 224 245 260 248 265 263 245 272 278 225 271 285 277 275 267 265 253 238 245 245 249 254 258 264 263 259 257 261 269 270 274 274 271 275 265 230 224 221 216 216 214 213 211 210 209 207 207 207 204 202 200 198 198 198 198 197 197 199 201 200 201 204 206 208 210 211 211 213 215 218 218 217 217 216
246 242 224 227 222 217 240 245 228 262 265 234 217 225 253 245 240 251 268 327 319 276 280 292 293 284 231 238 248 235 243 245 247 254 260 262 257 259 264 266 267 265 268 272 274 277 269 228 217 219 218 216 211 211 211 210 208 207 207 205 202 200 198 197 197 196 194 192 191 192 193 194 196 199 200 202 206 208 210 212 214 216 216 216 217 216
259 243 177 188 217 210 222 241 211 210 253 259 220 207 238 247 247 257 284 340 338 302 302 318 305 297 195 187 234 244 240 241 242 250 253 256 258 265 272 266 261 262 263 266 269 273 272 251 220 223 220 215 213 215 216 213 209 207 206 203 200 198 196 196 195 193 192 190 188 186 184 184 187 190 196 201 205 207 209 212 213 214 215 215 216 216
259 242 203 205 216 197 205 250 221 197 239 274 229 202 227 245 251 258 272 307 278 262 300 63 254 286 283 158 211 239 240 244 242 240 245 251 262 268 266 263 263 264 264 265 265 268 273 257 214 225 219 214 218 221 218 213 209 206 204 200 198 196 195 194 193 192 191 190 189 190 190 190 190 192 200 206 208 209 210 211 212 213 214 215 216 216
212 246 243 232 210 166 193 250 218 180 208 269 238 200 213 229 239 238 228 227 240 276 294 188 155 272 286 228 192 216 230 247 249 243 248 256 261 262 262 264 266 262 263 265 265 269 274 250 210 227 224 221 225 223 214 208 206 204 201 198 196 195 194 192 192 192 192 192 192 194 195 196 198 199 204 206 207 210 209 209 211 212 213 214 216 217
157 207 226 198 169 179 210 234 184 158 199 258 150 160 185 200 213 169 168 208 259 344 285 216 143 252 281 268 173 209 228 246 253 247 252 259 261 264 269 272 272 268 266 263 262 272 281 257 220 228 230 229 227 218 208 205 203 201 198 196 193 193 193 192 192 193 194 196 195 196 197 199 202 204 206 205 205 207 207 207 209 211 212 213 214 216
187 210 187 160 168 212 225 231 168 166 204 240 111 95 64 72 80 109 169 177 74 310 261 196 161 213 280 280 113 103 225 238 254 255 255 256 259 268 272 275 274 273 276 275 270 275 280 268 244 238 235 230 222 210 204 201 198 196 194 191 191 192 192 192 193 194 195 197 197 198 199 200 202 203 204 204 202 204 205 205 207 209 211 212 213 215
243 199 137 167 195 203 200 172 166 182 210 312 70 33 18 14 23 55 200 95 79 280 245 179 180 187 282 282 152 181 218 208 228 254 269 269 268 272 272 270 272 274 280 283 283 282 284 283 263 242 227 218 209 200 195 193 192 191 190 189 190 191 192 192 193 195 196 197 199 200 201 201 201 200 199 198 198 201 202 202 205 207 210 212 213 214
261 202 199 233 208 164 158 145 334 216 192 355 19 20 359 325 357 25 350 59 170 264 238 181 180 173 241 257 194 250 252 211 206 221 258 274 276 274 270 268 272 273 272 281 296 308 315 299 263 227 213 201 194 190 187 187 186 187 187 187 188 190 192 193 194 196 197 198 201 202 203 203 202 200 199 199 199 200 201 202 203 204 208 210 212 214
279 219 231 286 217 167 161 193 324 355 89 124 134 77 351 314 339 350 313 91 213 257 241 187 173 187 245 251 234 256 262 248 225 211 234 253 260 262 266 275 284 287 287 299 307 305 295 268 240 220 210 194 191 189 184 183 183 184 186 187 188 190 193 194 195 197 199 200 202 204 204 205 204 204 204 203 203 203 203 203 202 203 205 207 209 211
289 271 194 98 262 188 149 163 239 268 167 154 157 161 161 202 274 270 264 270 259 268 273 184 171 243 270 270 226 233 255 262 231 215 233 243 252 263 275 291 296 294 298 304 289 280 272 259 248 234 219 201 198 194 185 182 182 183 186 189 191 193 194 195 196 198 200 202 204 205 206 207 206 207 208 207 207 206 206 205 205 206 207 208 210 211
253 292 218 174 245 179 169 197 202 165 161 185 166 143 161 182 212 236 237 259 269 280 311 250 187 224 267 285 234 231 265 297 264 244 256 262 266 276 286 293 294 292 295 296 284 272 256 247 246 243 233 217 206 199 190 184 183 185 188 192 194 194 195 197 198 200 202 204 205 206 208 209 209 210 210 211 211 211 211 210 209 210 210 211 213 213
202 263 247 211 155 153 180 230 187 118 84 241 134 111 208 202 189 228 239 240 258 290 290 238 223 228 245 282 276 264 276 282 279 284 290 277 266 266 273 278 283 285 291 300 297 286 271 260 250 237 228 218 207 203 200 192 188 190 192 194 197 197 198 199 201 202 204 205 206 207 209 210 210 211 211 213 214 215 215 214 213 214 214 215 215 214
221 253 254 27 10 172 201 268 200 162 194 254 119 177 244 172 153 224 257 247 247 259 246 235 259 275 290 289 289 300 281 277 294 307 288 272 263 256 269 271 272 281 294 302 297 292 291 290 279 254 235 220 207 204 207 204 198 196 195 196 198 200 202 204 204 205 205 206 208 210 211 211 211 212 213 214 215 215 216 216 216 217 217 217 216 216
238 265 269 272 283 260 223 280 290 263 157 146 205 224 266 47 136 188 253 273 244 247 245 234 255 272 291 282 289 10 321 290 285 285 283 278 270 268 282 276 278 288 300 303 300 302 298 284 271 254 242 232 219 215 218 217 211 206 204 201 200 202 205 207 207 208 208 208 209 211 212 212 213 213 215 216 216 215 215 216 217 217 218 217 217 216
246 274 276 269 263 286 25 17 304 293 169 183 249 281 86 253 256 207 191 227 235 248 253 226 243 258 257 260 272 277 271 267 266 271 286 279 272 312 310 302 308 310 318 324 325 321 296 268 260 251 242 236 227 224 226 226 223 218 214 210 208 209 209 209 210 212 213 212 212 213 214 214 215 215 216 216 216 215 215 216 217 216 217 217 216 215
9 242 281 307 309 345 28 331 264 272 261 209 283 316 300 221 233 223 205 191 231 250 258 238 234 237 235 252 269 268 252 233 248 256 258 264 260 271 292 304 317 318 321 326 322 314 302 281 276 269 255 245 234 229 227 225 226 224 222 219 216 215 213 213 214 216 218 217 216 216 216 217 217 218 218 217 215 215 216 217 216 216 216 216 215 214
64 224 249 287 305 328 277 217 218 233 232 190 219 241 246 237 250 265 239 188 233 253 254 250 242 229 229 261 266 266 250 208 230 237 239 257 262 263 277 293 307 316 318 318 318 316 321 337 341 307 272 258 249 242 235 229 228 226 225 224 222 219 217 216 216 217 220 221 219 219 218 219 219 220 220 219 217 217 218 218 217 217 216 215 214 214
180 223 219 225 246 260 254 231 193 190 189 174 186 209 226 230 256 277 259 227 225 245 246 252 256 239 212 251 262 266 257 209 224 232 241 260 278 290 294 295 304 313 306 301 303 304 310 323 333 316 276 253 245 244 240 236 234 231 229 227 224 222 222 221 220 220 222 221 220 221 221 220 220 219 220 220 219 219 219 219 219 218 216 214 215 214
161 149 207 220 220 241 257 256 213 190 192 202 203 213 235 225 208 238 250 243 240 251 254 258 263 241 185 235 265 275 278 270 249 233 246 270 288 296 296 293 295 293 282 285 291 289 293 299 300 291 267 246 239 242 244 241 237 234 233 231 227 226 226 225 225 225 224 223 223 223 223 221 220 219 219 220 220 220 220 219 218 217 216 214 214 214
128 106 232 245 244 255 269 276 263 216 197 266 252 228 232 232 230 235 243 252 256 258 261 262 259 237 175 238 264 276 282 283 272 244 243 270 282 276 272 274 276 277 281 289 291 290 293 295 296 292 278 260 250 248 249 247 242 237 236 233 228 229 231 229 227 228 227 227 228 227 225 223 221 219 219 220 221 221 220 219 217 216 215 214 214 213
221 192 223 254 271 274 270 274 275 246 185 224 246 237 235 235 242 251 257 264 261 246 246 256 258 245 224 256 268 276 280 281 279 269 232 229 265 259 251 267 279 290 307 317 321 329 329 315 302 291 281 272 269 268 266 260 248 240 239 236 231 232 235 232 229 228 228 229 231 230 227 224 221 219 219 220 222 222 221 218 216 215 214 212 212 212
264 222 215 252 257 259 259 254 268 273 219 225 250 243 244 240 241 250 255 255 253 242 238 247 258 256 251 265 273 279 286 288 288 286 262 214 253 266 268 298 322 340 350 352 354 355 352 346 340 334 328 310 294 289 285 279 266 254 249 244 239 237 237 236 232 229 229 230 231 231 229 225 221 219 220 221 222 222 221 218 215 213 212 211 211 210
285 243 232 243 248 255 263 263 273 285 280 282 280 261 258 256 245 246 248 247 254 256 247 245 257 262 259 265 274 278 283 284 286 293 302 320 334 341 357 9 14 15 10 6 7 5 1 359 355 352 349 343 336 326 310 296 285 276 267 259 252 245 241 240 235 232 231 230 230 230 229 226 222 221 221 222 221 220 219 217 215 214 212 211 210 208
190 247 242 245 249 252 261 267 272 274 270 270 273 271 269 267 258 249 248 249 255 264 258 250 256 264 261 260 266 269 274 282 297 318 341 6 17 18 24 27 24 19 12 8 8 4 360 356 353 353 354 350 349 345 338 327 312 299 286 276 269 261 253 249 242 236 235 232 231 231 229 227 226 224 223 222 220 218 216 215 215 214 212 210 209 209
194 255 248 249 256 254 259 268 269 269 270 269 270 271 269 267 264 258 255 255 254 258 263 263 261 262 264 266 272 287 313 330 347 5 22 32 28 22 23 22 17 12 6 3 1 357 354 349 348 348 349 349 349 347 344 341 334 326 313 299 292 284 274 264 252 244 239 234 232 232 231 229 227 226 224 220 218 216 215 214 214 212 211 209 208 209
217 257 250 255 269 269 266 270 269 268 271 270 268 266 266 266 265 264 265 265 265 265 267 271 268 266 279 319 339 0 9 3 7 19 30 31 25 21 20 16 12 7 1 358 354 351 349 345 344 343 343 346 347 344 342 339 337 334 328 320 313 303 293 279 261 251 243 237 236 235 232 229 227 224 221 218 217 216 213 212 212 210 209 208 208 207
242 278 318 310 294 279 272 271 266 262 264 269 270 267 265 267 268 270 273 274 272 271 270 271 270 271 319 1 5 14 13 12 16 20 24 23 18 18 17 12 8 2 357 353 348 346 346 345 345 346 344 343 342 341 340 337 335 334 332 331 326 316 307 290 268 255 246 241 242 239 234 230 226 221 219 217 216 215 212 210 209 208 207 206 205 205
277 294 320 311 284 271 270 270 272 277 278 274 272 270 267 266 265 265 265 263 265 271 275 276 277 300 350 347 351 10 13 11 11 16 22 18 12 12 9 4 1 356 352 349 346 346 345 344 345 344 341 340 339 339 337 335 333 333 333 332 328 322 313 296 273 259 250 246 245 241 236 232 226 221 218 216 214 213 210 208 206 205 204 203 203 202
239 258 285 277 275 280 275 276 286 297 289 274 269 276 274 269 270 269 266 272 287 302 295 289 337 14 346 347 1 8 8 360 350 2 28 20 10 8 1 355 352 349 347 345 344 344 341 340 341 339 337 336 335 335 333 332 333 332 331 331 328 326 318 300 279 264 255 252 248 241 237 232 225 222 220 216 213 211 207 205 204 203 202 201 200 199
231 241 248 247 264 274 276 288 300 287 275 271 298 11 10 4 352 336 321 345 3 27 64 86 66 26 5 10 8 358 353 343 326 318 40 27 12 3 355 349 345 343 343 342 341 340 338 335 335 335 335 335 334 334 333 334 336 334 333 334 333 332 327 311 290 273 264 259 253 244 237 230 224 223 221 217 212 208 205 204 203 202 201 199 197 197
246 248 247 235 246 264 276 290 280 265 263 243 72 51 83 88 57 67 83 47 31 44 64 60 45 30 15 6 359 342 331 325 309 289 15 23 12 358 347 341 340 339 338 337 337 336 335 334 334 335 335 333 334 335 335 335 337 336 335 335 336 336 333 323 305 288 276 269 261 251 240 231 226 223 221 216 210 205 204 204 203 201 200 198 197 198
237 248 249 229 242 258 251 242 252 267 271 127 67 25 29 38 31 51 82 60 44 48 60 50 30 24 5 342 341 332 317 313 298 264 21 17 4 352 341 334 334 335 333 333 334 332 332 333 333 332 331 331 332 334 335 335 336 335 334 333 335 337 337 331 318 304 293 281 271 260 247 236 228 224 220 214 209 206 205 204 203 201 198 197 198 199
218 230 240 239 239 239 245 247 258 280 283 196 356 356 6 343 341 336 327 60 67 37 63 77 23 2 353 332 330 324 318 319 304 247 82 16 349 339 329 321 323 325 325 329 330 329 331 333 333 332 331 331 333 334 335 335 335 335 333 333 334 337 337 335 328 320 312 298 284 271 255 242 231 224 219 213 209 208 207 205 203 200 197 195 195 196
208 219 229 248 252 257 276 278 274 277 268 170 266 278 259 249 238 220 244 210 119 225 233 163 189 306 325 328 322 324 334 337 324 311 344 345 334 331 322 314 319 325 328 331 332 332 334 334 333 333 333 332 332 334 336 335 334 334 333 333 334 335 335 336 335 331 324 312 299 283 265 249 236 226 220 214 211 210 209 206 203 200 197 195 195 196
191 220 211 244 265 278 284 277 272 271 233 155 230 247 246 259 246 201 234 209 133 198 228 183 199 234 225 280 304 338 352 342 320 311 325 333 330 326 321 319 327 330 329 331 332 332 333 332 331 331 332 332 331 333 335 334 334 334 333 332 334 333 332 334 336 334 328 319 308 292 274 257 242 232 224 218 215 212 209 207 204 202 199 197 196 196
16 337 217 244 256 259 264 264 270 274 231 163 254 266 265 271 274 272 272 256 126 216 217 179 217 232 209 241 271 352 349 320 303 304 313 319 317 316 321 325 328 329 327 328 329 328 328 328 330 330 331 331 330 331 333 334 333 332 330 330 331 330 329 330 331 331 329 323 314 299 281 264 248 237 228 223 219 214 210 207 203 201 199 197 197 196
331 268 236 235 242 246 253 259 269 268 238 211 263 271 283 320 358 273 271 287 350 271 214 174 220 236 212 242 260 275 280 269 274 288 297 305 307 311 319 320 318 319 319 321 324 326 326 326 328 327 326 328 329 329 331 332 331 328 327 327 327 325 324 325 327 328 328 325 316 304 288 271 255 242 234 228 221 215 210 206 203 201 197 196 195 194
219 247 242 210 211 226 230 243 278 278 220 129 272 272 298 29 272 261 266 273 283 265 209 185 220 231 220 237 245 248 261 264 267 277 287 296 302 309 314 315 315 313 314 317 320 324 326 325 325 324 323 324 326 325 328 330 327 324 323 323 321 321 321 322 324 325 325 323 317 308 296 281 265 250 238 230 221 213 209 205 203 201 197 195 194 192
233 263 272 211 200 250 248 240 268 264 218 84 9 328 358 72 252 275 299 275 237 217 204 210 225 227 232 245 249 257 269 276 278 279 284 291 299 305 306 308 308 307 311 314 315 320 325 323 320 320 319 320 322 322 326 327 323 321 321 318 317 320 320 319 320 320 319 319 316 310 301 287 270 253 238 229 220 212 207 203 201 198 195 194 193 191
259 239 242 240 236 244 240 235 235 234 245 328 341 302 271 263 260 273 287 273 237 200 204 220 231 233 234 243 258 270 279 280 282 287 290 293 299 302 301 303 305 304 307 308 308 316 322 319 316 315 314 315 318 320 323 324 322 318 315 314 317 320 318 316 317 316 314 313 312 308 303 290 272 253 239 228 218 209 205 201 197 195 195 194 192 190
245 214 214 240 247 221 209 232 255 282 295 293 288 267 259 266 268 255 247 255 251 218 196 207 239 247 238 236 253 269 276 277 280 285 287 290 296 297 297 300 299 299 301 303 304 311 316 315 312 311 309 310 314 318 320 321 320 315 310 311 317 317 315 317 320 317 313 310 307 304 300 290 274 256 241 230 217 208 203 198 194 194 195 194 192 192
262 250 204 205 257 254 243 248 261 274 274 267 266 265 262 265 265 236 222 238 240 220 202 211 239 252 250 244 250 259 267 275 281 282 283 288 290 290 292 294 295 298 300 300 304 311 316 314 310 308 308 309 311 315 316 316 315 310 306 309 313 312 313 319 320 315 311 308 304 301 295 285 272 257 242 231 220 212 207 201 196 194 195 195 196 197
268 238 221 241 257 262 261 251 246 248 254 257 264 270 270 269 258 222 216 236 232 218 218 220 233 255 263 251 247 255 266 273 279 280 281 283 283 287 292 292 294 298 297 297 303 309 311 309 305 305 307 306 307 311 314 312 309 306 305 307 309 309 312 315 314 310 306 303 301 300 292 279 268 257 241 229 220 214 211 207 201 198 197 198 198 198
259 187 195 234 245 239 249 261 261 253 255 264 271 272 272 272 264 239 224 231 234 232 233 219 217 239 260 262 258 263 271 274 274 275 280 282 280 283 288 288 291 295 295 296 301 306 307 304 299 300 301 299 302 308 310 307 305 304 304 305 306 310 312 310 307 303 300 297 295 294 288 276 265 254 241 230 221 214 211 208 204 204 206 205 202 200
272 234 208 222 242 254 263 270 270 269 271 272 268 265 264 262 259 247 227 231 260 268 261 255 243 231 244 265 273 274 274 274 274 275 279 283 283 284 284 285 287 288 288 290 295 299 300 299 298 299 297 295 299 305 306 303 302 301 301 303 306 309 308 303 300 297 294 293 290 287 282 274 262 251 240 231 224 219 217 214 210 210 213 213 211 208
205 249 245 239 248 258 260 257 257 265 275 269 267 272 271 248 237 232 222 243 261 258 261 280 282 269 260 260 259 261 270 275 279 282 280 280 282 285 287 288 290 288 287 289 292 293 292 292 293 296 294 293 297 301 300 299 298 296 297 300 303 304 301 297 295 292 289 289 287 283 278 271 260 250 240 232 226 222 222 222 219 217 217 217 217 216
216 237 242 243 246 249 253 255 254 257 264 266 273 284 305 130 182 232 253 259 254 254 282 297 291 290 289 279 263 255 263 274 281 282 278 278 280 283 285 288 288 288 290 293 295 294 294 293 293 293 292 293 296 296 295 295 294 293 295 299 300 299 295 291 289 286 284 285 285 283 279 270 259 251 241 234 228 221 218 220 221 221 221 220 219 219